STARLINK-36092

Last updated on Mon Dec 15 2025 00:02:12 GMT+0000 (Coordinated Universal Time)

1 66869U 25281X 25348.25003472 -.01370652 00000+0 -57383-2 0 9991 2 66869 43.0007 112.8921 0001583 265.3103 313.9166 15.87377457 1679
UTC large
Height (km)
Speed (km/s)
/
Latitude / Longitude
Inclination (degrees)
Orbital Period (minutes)
Azimuth
Elevation
Range (km)
Doppler Factor

Next 0 passes for location: London (51.5072 / 0.1276)

Sorry there are no passes over London.